Change the Weather History Date:

Wednesday, January 1, 2014

  Actual Average Record
Temperature  
Mean Temperature 27 °F 32 °F  
Max Temperature 41 °F 40 °F 68 °F (1952)
Min Temperature 13 °F 23 °F -18 °F (1974)
Degree Days  
Heating Degree Days 38 33  
Month to date heating degree days 38 33  
Since 1 July heating degree days 2012 1814  
Cooling Degree Days 0 0  
Month to date cooling degree days 0 0  
Year to date cooling degree days 0 0  
Moisture  
Dew Point 16 °F    
Average Humidity 67    
Maximum Humidity 88    
Minimum Humidity 46    
Precipitation  
Precipitation 0.03 in 0.05 in 1.34 in (1985)
Month to date precipitation 0.03 0.05  
Year to date precipitation 0.03 0.05  
Sea Level Pressure  
Sea Level Pressure 30.15 in    
Wind  
Wind Speed 10 mph (North)    
Max Wind Speed 23 mph    
Max Gust Speed 27 mph    
Visibility 5 miles    
Events Snow    
T = Trace of Precipitation, MM = Missing Value Source: NWS Daily Summary

Daily Weather History Graph

Daily Weather History Graph

Search for Another Location

Airport or City:

Trip Planner

Search our weather history database for the weather conditions in past years. The results will help you decide how hot, cold, wet, or windy it might be!

Date:

Astronomy

Jan. 01, 2014 Rise Set
Actual Time 7:30 AM CST 5:02 PM CST
Civil Twilight 7:01 AM CST 5:31 PM CST
Nautical Twilight 6:27 AM CST 6:05 PM CST
Astronomical Twilight 5:55 AM CST 6:37 PM CST
Moon 7:22 AM CST (1/1) 5:46 PM CST (1/1)
Length of Visible Light 10h 30m
Length of Day
9h 31m
New Moon, 0% of the Moon is Illuminated
Jan 1
New Moon
Jan 7
First Quarter
Jan 15
Full
Jan 23
Last Quarter
Jan 30
New

Hourly Weather History & Observations

Time (CST) Temp. Windchill Dew Point Humidity Pressure Visibility Wind Dir Wind Speed Gust Speed Precip Events Conditions
12:53 AM 39.0 °F 31.8 °F 23.0 °F 53% 30.11 in 10.0 mi SSW 11.5 mph - N/A   Clear
1:53 AM 37.9 °F 30.9 °F 23.0 °F 55% 30.10 in 10.0 mi SSW 10.4 mph - N/A   Clear
2:53 AM 37.0 °F 29.3 °F 23.0 °F 57% 30.10 in 10.0 mi SSW 11.5 mph - N/A   Clear
3:53 AM 37.0 °F 31.6 °F 23.0 °F 57% 30.09 in 10.0 mi SW 6.9 mph - N/A   Clear
4:53 AM 30.0 °F 25.2 °F 21.9 °F 72% 30.09 in 10.0 mi South 4.6 mph - N/A   Clear
5:53 AM 28.9 °F - 21.0 °F 72% 30.09 in 10.0 mi Calm Calm - N/A   Clear
6:53 AM 30.0 °F 26.5 °F 21.9 °F 72% 30.09 in 10.0 mi SSE 3.5 mph - N/A   Clear
7:53 AM 32.0 °F 28.7 °F 21.9 °F 66% 30.11 in 10.0 mi SE 3.5 mph - N/A   Clear
8:53 AM 35.1 °F - 26.1 °F 70% 30.11 in 10.0 mi Calm Calm - N/A   Clear
9:53 AM 37.0 °F - 25.0 °F 62% 30.12 in 10.0 mi Calm Calm - N/A   Clear
10:53 AM 39.9 °F - 24.1 °F 53% 30.11 in 10.0 mi Calm Calm - N/A   Clear
11:53 AM 34.0 °F 26.6 °F 26.1 °F 73% 30.09 in 10.0 mi North 9.2 mph - N/A   Clear
12:53 PM 30.9 °F 21.2 °F 23.0 °F 72% 30.07 in 10.0 mi North 12.7 mph - N/A   Mostly Cloudy
1:53 PM 28.9 °F 20.4 °F 21.9 °F 75% 30.06 in 10.0 mi North 9.2 mph - N/A   Clear
2:53 PM 28.0 °F 17.5 °F 21.0 °F 75% 30.06 in 10.0 mi North 12.7 mph - N/A   Scattered Clouds
3:53 PM 26.1 °F 12.3 °F 19.9 °F 78% 30.07 in 10.0 mi North 19.6 mph - N/A   Overcast
4:48 PM 24.8 °F 11.5 °F 19.4 °F 80% 30.07 in 8.0 mi North 17.3 mph - N/A   Overcast
4:53 PM 25.0 °F 11.3 °F 18.0 °F 75% 30.11 in 9.0 mi North 18.4 mph - N/A   Overcast
5:53 PM 23.0 °F 8.7 °F 16.0 °F 74% 30.17 in 10.0 mi North 18.4 mph 24.2 mph N/A   Overcast
6:09 PM 23.0 °F 8.7 °F 17.1 °F 78% 30.13 in 10.0 mi North 18.4 mph - N/A   Overcast
6:42 PM 21.9 °F 7.3 °F 17.1 °F 82% 30.13 in 2.5 mi North 18.4 mph - 0.00 in Snow Light Snow
6:53 PM 21.0 °F 7.1 °F 17.1 °F 85% 30.17 in 1.5 mi North 16.1 mph 25.3 mph 0.00 in Snow Light Snow
7:22 PM 21.0 °F 6.2 °F 16.0 °F 81% 30.15 in 1.2 mi North 18.4 mph - 0.00 in Snow Light Snow
7:43 PM 19.9 °F 6.7 °F 16.0 °F 85% 30.15 in 1.5 mi North 13.8 mph - 0.00 in Snow Light Snow
7:49 PM 19.4 °F 4.1 °F 15.8 °F 86% 30.15 in 1.2 mi North 18.4 mph - 0.00 in Snow Light Snow
7:53 PM 19.0 °F 3.2 °F 15.1 °F 85% 30.19 in 1.0 mi North 19.6 mph - 0.00 in Snow Light Snow
7:59 PM 19.0 °F 2.7 °F 15.1 °F 85% 30.16 in 1.2 mi North 20.7 mph - 0.00 in Snow Light Snow
8:06 PM 19.0 °F 4.0 °F 15.1 °F 85% 30.16 in 1.0 mi North 17.3 mph - 0.00 in Snow Light Snow
8:13 PM 19.0 °F 6.1 °F 15.1 °F 85% 30.16 in 0.8 mi North 12.7 mph - 0.01 in Snow Light Snow
8:20 PM 18.0 °F 3.6 °F 15.1 °F 88% 30.16 in 0.8 mi North 15.0 mph - 0.01 in Snow Light Snow
8:42 PM 17.1 °F 2.0 °F 12.9 °F 84% 30.17 in 1.0 mi North 16.1 mph - 0.01 in Snow Light Snow
8:53 PM 16.0 °F 0.1 °F 12.9 °F 88% 30.21 in 0.8 mi NNW 17.3 mph - 0.01 in Snow Light Snow
9:00 PM 16.0 °F -2.1 °F 12.0 °F 84% 30.18 in 1.0 mi North 23.0 mph - 0.01 in Snow Light Snow
9:12 PM 16.0 °F -0.9 °F 10.9 °F 81% 30.18 in 1.2 mi North 19.6 mph - 0.01 in Snow Light Snow
9:27 PM 15.1 °F -1.6 °F 10.9 °F 84% 30.19 in 1.8 mi North 18.4 mph - 0.01 in Snow Light Snow
9:42 PM 15.1 °F -1.6 °F 10.9 °F 84% 30.20 in 2.0 mi North 18.4 mph - 0.01 in Snow Light Snow
9:53 PM 15.1 °F -0.1 °F 10.9 °F 84% 30.23 in 2.5 mi North 15.0 mph - 0.01 in Snow Light Snow
10:09 PM 15.1 °F -1.6 °F 10.0 °F 80% 30.20 in 1.5 mi North 18.4 mph - 0.00 in Snow Light Snow
10:17 PM 15.1 °F 0.5 °F 10.0 °F 80% 30.21 in 1.0 mi North 13.8 mph - 0.00 in Snow Light Snow
10:27 PM 14.0 °F -2.5 °F 10.0 °F 84% 30.21 in 1.0 mi North 17.3 mph - 0.00 in Snow Light Snow
10:34 PM 14.0 °F -2.0 °F 10.0 °F 84% 30.21 in 1.2 mi NNW 16.1 mph - 0.00 in Snow Light Snow
10:43 PM 14.0 °F -3.0 °F 10.0 °F 84% 30.22 in 1.8 mi NNW 18.4 mph 24.2 mph 0.00 in Snow Light Snow
10:46 PM 14.0 °F -3.9 °F 9.0 °F 80% 30.22 in 2.0 mi North 20.7 mph 24.2 mph 0.00 in Snow Light Snow
10:53 PM 14.0 °F -1.4 °F 10.0 °F 84% 30.25 in 2.0 mi NNW 15.0 mph - 0.00 in Snow Light Snow
10:59 PM 14.0 °F -2.5 °F 10.0 °F 84% 30.22 in 1.2 mi NNW 17.3 mph 23.0 mph 0.00 in Snow Light Snow
11:03 PM 14.0 °F -3.0 °F 10.0 °F 84% 30.22 in 1.0 mi NNW 18.4 mph 23.0 mph 0.00 in Snow Light Snow
11:22 PM 12.9 °F -3.9 °F 9.0 °F 84% 30.22 in 1.2 mi NNW 17.3 mph - 0.01 in Snow Light Snow
11:44 PM 12.9 °F -3.4 °F 9.0 °F 84% 30.22 in 1.5 mi North 16.1 mph - 0.01 in Snow Light Snow
11:53 PM 12.9 °F -3.4 °F 9.0 °F 84% 30.26 in 2.0 mi North 16.1 mph 25.3 mph 0.01 in Snow Light Snow